Tracking 23611 objects as of 18-Sep-2021
HD Live streaming from Space Station
objects crossing your sky now
Track INSPIRATION-4

XM-2

Track XM-2 now!
XM-2 is classified as:


NORAD ID: 26724
Int'l Code: 2001-012A
Perigee: 36,094.6 km
Apogee: 36,165.6 km
Inclination: 5.5 °
Period: 1,453.3 minutes
Semi major axis: 42501 km
RCS: 25.1188 m2 (large)
Launch date: March 18, 2001
Source: United States (US)
Launch site: SEA LAUNCH (SEAL)

100 channels of digital music uplinked in the X-band from one or more ground stations.
aabbcc
Your satellite tracking list
Your tracking list is empty




NASA's NSSDC Master Catalog

Two Line Element Set (TLE):
1 26724U 01012A   21261.40327149 -.00000253  00000-0  00000-0 0  9998
2 26724   5.5068  71.6205 0008355  55.5074 332.8629  0.99083850 25074
Source of the keplerian elements: AFSPC